Home > Weather > Keratsini > Past weeks

Flag for Greece Past Weather in Keratsini, Greece — Yesterday and Last 2 Weeks

Now
81 °F

Clear.


Feels Like: 81 °F
Forecast: 71 / 84 °F
Wind: 12 mph from Northwest

Location: Elefsis Airport

Current Time: Jun 25, 2016 at 4:42:29 AM

Latest Report: Jun 25, 2016 at 3:50 AM


Visibility: 10 mi

Pressure: 29.74 "Hg

Humidity: 48%

Dew Point: 59 °F

Location of KeratsiniLocation

Past Weather in Keratsini — Graph

°F

Keratsini Temperature Yesterday

Maximum temperature yesterday: 95 °F (at 2:20 PM)
Minimum temperature yesterday: 82 °F (at 5:20 AM)
Average temperature yesterday: 88 °F

High & Low Weather Summary for the Past Weeks

 TemperatureHumidityPressure
High104 °F (Jun 19, 1:20 PM)88% (Jun 14, 1:50 AM)30.04 "Hg (Jun 14, 1:50 AM)
Low59 °F (Jun 10, 5:50 AM)14% (Jun 19, 2:20 PM)29.53 "Hg (Jun 14, 1:50 PM)
Average83 °F40%29.86 "Hg
* Reported Jun 10 2:20 AM — Jun 25 2:50 AM, Keratsini, Weather by CustomWeather, © 2016

Note: Actual official high and low records may vary slightly from our data, if they occured in-between our weather recording intervals... More about our weather records

Advertising

Keratsini Weather History for the Previous 24 Hours

Scroll right to see more
 ConditionsComfort  
Time TempWeatherWind HumidityBarometerVisibility
2:50 AM
Sat, Jun 25
82 °FClear.8 mph45%29.77 "Hg10 mi
2:20 AM82 °FClear.8 mph45%29.77 "Hg10 mi
1:50 AM82 °FClear.6 mph45%29.77 "Hg10 mi
1:20 AM84 °FClear.5 mph45%29.77 "Hg10 mi
12:50 AM84 °FClear.7 mph45%29.77 "Hg10 mi
12:20 AM84 °FClear.8 mph45%29.77 "Hg10 mi
11:50 PM
Fri, Jun 24
84 °FClear.10 mph45%29.77 "Hg10 mi
11:20 PM86 °FClear.10 mph43%29.77 "Hg10 mi
10:50 PM86 °FClear.10 mph46%29.77 "Hg10 mi
10:20 PM86 °FClear.8 mph46%29.77 "Hg10 mi
9:50 PM88 °FSunny.7 mph43%29.77 "Hg10 mi
9:20 PM88 °FSunny.8 mph43%29.77 "Hg10 mi
8:50 PM90 °FSunny.8 mph41%29.77 "Hg10 mi
8:20 PM90 °FSunny.7 mph41%29.77 "Hg10 mi
7:50 PM91 °FSunny.9 mph38%29.77 "Hg10 mi
7:20 PM91 °FSunny.12 mph36%29.77 "Hg10 mi
6:50 PM93 °FSunny.12 mph34%29.77 "Hg10 mi
6:20 PM93 °FSunny.12 mph32%29.77 "Hg10 mi
5:50 PM93 °FSunny.13 mph32%29.77 "Hg10 mi
5:20 PM93 °FSunny.16 mph32%29.77 "Hg10 mi
4:50 PM95 °FSunny.15 mph30%29.80 "Hg10 mi
4:20 PM95 °FSunny.16 mph30%29.77 "Hg10 mi
3:50 PM93 °FSunny.14 mph32%29.80 "Hg10 mi
3:20 PM93 °FSunny.16 mph30%29.80 "Hg10 mi
2:50 PM95 °FPassing clouds.14 mph30%29.80 "HgN/A
2:20 PM95 °FPassing clouds.16 mph30%29.80 "HgN/A
1:50 PM93 °FPassing clouds.16 mph32%29.80 "HgN/A
1:20 PM93 °FPassing clouds.16 mph32%29.80 "HgN/A
12:50 PM93 °FPassing clouds.21 mph30%29.83 "HgN/A
12:20 PM91 °FPassing clouds.20 mph34%29.83 "HgN/A
11:50 AM91 °FPassing clouds.16 mph34%29.83 "HgN/A
11:20 AM91 °FPassing clouds.16 mph34%29.83 "HgN/A
10:50 AM90 °FPassing clouds.18 mph36%29.83 "HgN/A
10:20 AM88 °FPassing clouds.17 mph38%29.83 "HgN/A
9:50 AM88 °FPassing clouds.16 mph38%29.83 "HgN/A
8:50 AM84 °FPassing clouds.21 mph48%29.86 "HgN/A
8:20 AM84 °FPassing clouds.18 mph48%29.86 "HgN/A
7:50 AM82 °FPassing clouds.17 mph51%29.86 "HgN/A
7:20 AM82 °FPassing clouds.17 mph51%29.86 "HgN/A
6:50 AM82 °FPassing clouds.14 mph48%29.86 "HgN/A
6:20 AM82 °FClear.15 mph48%29.86 "Hg10 mi
5:50 AM82 °FClear.12 mph48%29.86 "Hg10 mi
5:20 AM82 °FClear.14 mph45%29.86 "Hg10 mi
4:50 AM84 °FClear.14 mph43%29.86 "Hg10 mi
4:20 AM84 °FClear.9 mph40%29.89 "Hg10 mi
Weather by CustomWeather, © 2016

See weather overviewHow to use our weather pages